{"data":{"norad_id":57141,"intl_designator":"2023-090AS","name":"STARLINK-5357","alt_names":[],"object_type":"PAYLOAD","status":"ACTIVE","operator":null,"country":"US","launch_date":"2023-06-23","launch_site_code":"AFETR","launch_vehicle":null,"mission":null,"orbit_class":"UNKNOWN","rcs_meters":null,"size_class":null,"mass_kg":null,"dimensions":null,"purposes":["comms"],"wikipedia_slug":null,"has_3d_model":false,"image_url":null,"decayed_at":null,"tle_current":{"epoch":"2026-05-25T04:06:26.771616Z","epoch_age_seconds":53510,"freshness":"FRESH","line1":"1 57141U 23090AS  26145.17114319  .00001238  00000+0  54507-4 0  9995","line2":"2 57141  43.0000 191.1275 0001380 298.0556  62.0156 15.27580934162058","mean_motion":15.27580934,"eccentricity":0.000138,"inclination_deg":43,"raan_deg":191.1275,"arg_perigee_deg":298.0556,"mean_anomaly_deg":62.0156,"bstar":5.4507e-5,"rev_number":16205,"period_min":94.266691076677,"perigee_km":482.09945601377,"apogee_km":483.99314260438,"semimajor_km":6861.1832993091,"source":"CELESTRAK","updated_at":"2026-05-25T13:38:18.247605Z"}}}